sat.trackr.live / text

‹ back to catalog

STARLINK-31656

NORAD 60286 · 2024-132J

PAYLOAD ACTIVE UNKNOWN

§ Identity

Operator
Country
US
Launch date
2024-07-28
Launch site
AFETR
Launch vehicle
Mass (kg)
RCS (m²)

Purposes: comms

External: N2YO · Heavens-Above · Gunter

§ Orbital elements

Epoch: 2026-05-25T04:10:13.195776Z

Period
94.11 min
Inclination
53.1609°
Eccentricity
0.0001730
Mean motion
15.30096146 rev/d
Perigee alt
474.3 km
Apogee alt
476.7 km
Semi-major
6,853.7 km
B*
7.4399e-4
RAAN
56.9501°
Arg perigee
87.2269°
Mean anomaly
272.8930°
Rev number
10,327

§ Raw data

STARLINK-316561 60286U 24132J   26145.17376384  .00021670  00000+0  74399-3 0  99912 60286  53.1609  56.9501 0001730  87.2269 272.8930 15.30096146103278

JSON: /api/v1/satellites/60286 · /tle

For live sub-satellite position, see the globe view (requires WebGL).

§ Visibility from observer

Set your observer location to see the next 7 days of passes ≥ 10°. The values pass through the URL so the page stays shareable.

No JS? Fill the form by hand. The geolocation button needs JavaScript.